Munising, MI

6:48 AM EDT on May 29, 2017 (GMT -0400)
Munising

Weather History for KP53 - September, 2013

Change the Weather History Date:

Sunday, September 8, 2013

  Actual Average (KISQ) Record (KISQ)
Temperature  
Mean Temperature 56 °F -  
Max Temperature 68 °F 67 °F 80 °F (1961)
Min Temperature 46 °F 51 °F 31 °F (1956)
Degree Days  
Heating Degree Days 9    
Growing Degree Days 6 (Base 50)    
Moisture  
Dew Point 51 °F    
Average Humidity 79    
Maximum Humidity 93    
Minimum Humidity 58    
Precipitation  
Precipitation 0.00 in - - ()
Sea Level Pressure  
Sea Level Pressure 30.12 in    
Wind  
Wind Speed 5 mph (SE)    
Max Wind Speed 13 mph    
Max Gust Speed -    
Averages and records for this station are not official NWS values.
T = Trace of Precipitation, MM = Missing Value Source: NWS Daily Summary

Daily Weather History Graph

Daily Weather History Graph

Search for Another Location

Airport or City:

Trip Planner

Search our weather history database for the weather conditions in past years. The results will help you decide how hot, cold, wet, or windy it might be!

Date:

Astronomy

Sep. 08, 2013 Rise Set
Actual Time 7:16 AM EDT 8:11 PM EDT
Civil Twilight 6:45 AM EDT 8:41 PM EDT
Nautical Twilight 6:08 AM EDT 9:18 PM EDT
Astronomical Twilight 5:30 AM EDT 9:56 PM EDT
Moon 10:47 AM EDT (9/8) 9:30 PM EDT (9/8)
Length of Visible Light 13h 56m
Length of Day
12h 55m
Waxing Crescent, 11% of the Moon is Illuminated
Sep 8
Waxing Crescent
Sep 12
First Quarter
Sep 19
Full
Sep 26
Last Quarter
Oct 4
New

Hourly Weather History & Observations

Time (EDT) Temp. Dew Point Humidity Pressure Visibility Wind Dir Wind Speed Gust Speed Precip Events Conditions
12:56 AM 53.1 °F 51.1 °F 93% 30.10 in - South 4.6 mph - N/A   Unknown
1:56 AM 52.0 °F 48.9 °F 89% 30.11 in - South 4.6 mph - N/A   Unknown
2:56 AM 51.1 °F 48.0 °F 89% 30.11 in - South 5.8 mph - N/A   Unknown
3:56 AM 50.0 °F 46.9 °F 89% 30.13 in - South 4.6 mph - N/A   Unknown
4:56 AM 48.9 °F 46.0 °F 90% 30.14 in - South 5.8 mph - N/A   Unknown
5:56 AM 48.0 °F 45.0 °F 89% 30.14 in - South 6.9 mph - N/A   Unknown
6:56 AM 46.9 °F 44.1 °F 90% 30.17 in - South 5.8 mph - N/A   Unknown
7:56 AM 46.9 °F 45.0 °F 93% 30.19 in - Calm Calm - N/A   Unknown
8:56 AM 55.9 °F 51.1 °F 84% 30.19 in - Calm Calm - N/A   Unknown
9:56 AM 60.1 °F 52.0 °F 75% 30.17 in - Calm Calm - N/A   Unknown
10:56 AM 63.0 °F 50.0 °F 63% 30.17 in - East 5.8 mph - N/A   Unknown
11:56 AM 64.9 °F 50.0 °F 58% 30.17 in - East 6.9 mph - N/A   Unknown
12:56 PM 66.9 °F 55.0 °F 66% 30.16 in - NE 10.4 mph - N/A   Unknown
1:56 PM 64.9 °F 55.0 °F 70% 30.14 in - NE 10.4 mph - N/A   Unknown
2:56 PM 66.0 °F 55.0 °F 68% 30.16 in - NE 12.7 mph - N/A   Unknown
3:56 PM 64.9 °F 55.0 °F 70% 30.12 in - NE 12.7 mph - N/A   Unknown
4:56 PM 64.0 °F 55.0 °F 73% 30.09 in - NE 10.4 mph - N/A   Unknown
5:56 PM 64.0 °F 55.0 °F 73% 30.07 in - NE 6.9 mph - N/A   Unknown
6:56 PM 64.9 °F 55.0 °F 70% 30.06 in - NNE 3.5 mph - N/A   Unknown
7:56 PM 60.1 °F 54.0 °F 80% 30.04 in - Calm Calm - N/A   Unknown
8:56 PM 59.0 °F 52.0 °F 78% 30.04 in - SSW 3.5 mph - N/A   Unknown
9:56 PM 55.9 °F 51.1 °F 84% 30.04 in - South 3.5 mph - N/A   Unknown
10:56 PM 55.0 °F 50.0 °F 83% 30.03 in - SSW 4.6 mph - N/A   Unknown
11:56 PM 55.0 °F 48.9 °F 80% 30.03 in - SW 4.6 mph - N/A   Unknown